International Skating Union - Official Site

Essent ISU World Cup Salt Lake City
February 18-19, 2011

Draw | Lap Times | Index | World Cup

Referee: Dave  THOMSON  (CAN)
Starter: Yves  BELANGER  (CAN)
StartTime: EndTime: Air Temp: Ice Temp: Humidity:
9:30 10:24 16.3℃ -11.2℃ 15.6%
Result 5000m Ladies Division B
Rankings as of Feb 18 2011 12:16PM
Rank: No.: Name: Nation: Time: Behind: Points:
1 20 Claudia  PECHSTEIN GER GER 6:51.62200m - 20.23 - (20.2)
600m - 51.90 - (31.6)
1000m - 1:23.86 - (31.9)
1400m - 1:55.91 - (32.0)
1800m - 2:27.77 - (31.8)
2200m - 3:00.02 - (32.2)
2600m - 3:32.29 - (32.2)
3000m - 4:04.80 - (32.5)
3400m - 4:37.50 - (32.6)
3800m - 5:10.14 - (32.6)
4200m - 5:43.52 - (33.3)
4600m - 6:17.43 - (33.9)
5000m - 6:51.62 - (34.1)
35
2 34 Mari  HEMMER NOR NOR 7:01.02200m - 21.03 - (21.0)
600m - 54.22 - (33.1)
1000m - 1:26.82 - (32.5)
1400m - 1:59.56 - (32.7)
1800m - 2:32.29 - (32.7)
2200m - 3:05.65 - (33.3)
2600m - 3:38.95 - (33.2)
3000m - 4:12.47 - (33.5)
3400m - 4:46.17 - (33.7)
3800m - 5:20.12 - (33.9)
4200m - 5:54.15 - (34.0)
4600m - 6:28.13 - (33.9)
5000m - 7:01.02 - (32.8)
9.40 30
3 18 Kathrin  MATTSCHERODT GER GER 7:02.49200m - 21.31 - (21.3)
600m - 54.09 - (32.7)
1000m - 1:26.91 - (32.8)
1400m - 2:00.16 - (33.2)
1800m - 2:33.50 - (33.3)
2200m - 3:06.47 - (32.9)
2600m - 3:39.69 - (33.2)
3000m - 4:12.81 - (33.1)
3400m - 4:46.30 - (33.4)
3800m - 5:19.73 - (33.4)
4200m - 5:53.67 - (33.9)
4600m - 6:27.90 - (34.2)
5000m - 7:02.49 - (34.5)
10.87 25
4 2 Ivanie  BLONDIN CAN CAN 7:04.68200m - 21.51 - (21.5)
600m - 54.58 - (33.0)
1000m - 1:27.51 - (32.9)
1400m - 2:01.37 - (33.8)
1800m - 2:34.90 - (33.5)
2200m - 3:08.28 - (33.3)
2600m - 3:41.68 - (33.4)
3000m - 4:15.17 - (33.4)
3400m - 4:48.59 - (33.4)
3800m - 5:22.31 - (33.7)
4200m - 5:55.95 - (33.6)
4600m - 6:30.02 - (34.0)
5000m - 7:04.68 - (34.6)
13.06 21
5 15 Jennifer  BAY GER GER 7:05.69200m - 20.79 - (20.7)
600m - 52.53 - (31.7)
1000m - 1:25.10 - (32.5)
1400m - 1:58.42 - (33.3)
1800m - 2:31.75 - (33.3)
2200m - 3:05.26 - (33.5)
2600m - 3:38.99 - (33.7)
3000m - 4:12.84 - (33.8)
3400m - 4:46.88 - (34.0)
3800m - 5:21.25 - (34.3)
4200m - 5:55.76 - (34.5)
4600m - 6:30.70 - (34.9)
5000m - 7:05.69 - (34.9)
14.07 18
6 39 Luiza  ZLOTKOWSKA POL POL 7:07.02200m - 21.25 - (21.2)
600m - 54.08 - (32.8)
1000m - 1:27.73 - (33.6)
1400m - 2:00.93 - (33.2)
1800m - 2:34.35 - (33.4)
2200m - 3:07.64 - (33.2)
2600m - 3:41.47 - (33.8)
3000m - 4:15.24 - (33.7)
3400m - 4:49.54 - (34.3)
3800m - 5:23.64 - (34.0)
4200m - 5:58.05 - (34.4)
4600m - 6:32.45 - (34.3)
5000m - 7:07.02 - (34.5)
15.40 15
7 27 Linda  de VRIES NED NED 7:10.28200m - 20.14 - (20.1)
600m - 52.65 - (32.5)
1000m - 1:25.59 - (32.9)
1400m - 1:58.51 - (32.9)
1800m - 2:31.44 - (32.9)
2200m - 3:04.57 - (33.1)
2600m - 3:38.00 - (33.4)
3000m - 4:11.81 - (33.8)
3400m - 4:46.07 - (34.2)
3800m - 5:21.00 - (34.9)
4200m - 5:56.42 - (35.4)
4600m - 6:32.98 - (36.5)
5000m - 7:10.28 - (37.2)
18.66 13
8 46 Maria  LAMB USA USA 7:10.83200m - 20.91 - (20.9)
600m - 53.66 - (32.7)
1000m - 1:27.33 - (33.6)
1400m - 2:01.68 - (34.3)
1800m - 2:36.08 - (34.4)
2200m - 3:10.16 - (34.0)
2600m - 3:44.14 - (33.9)
3000m - 4:18.48 - (34.3)
3400m - 4:52.64 - (34.1)
3800m - 5:26.60 - (33.9)
4200m - 6:00.81 - (34.2)
4600m - 6:35.12 - (34.3)
5000m - 7:10.82 - (35.6)
19.21 11
9 3 Nicole  GARRIDO CAN CAN 7:12.59200m - 21.50 - (21.5)
600m - 54.73 - (33.2)
1000m - 1:28.70 - (33.9)
1400m - 2:02.53 - (33.8)
1800m - 2:36.60 - (34.0)
2200m - 3:10.62 - (34.0)
2600m - 3:44.90 - (34.2)
3000m - 4:19.31 - (34.4)
3400m - 4:53.69 - (34.3)
3800m - 5:28.09 - (34.3)
4200m - 6:02.78 - (34.6)
4600m - 6:37.18 - (34.4)
5000m - 7:12.59 - (35.3)
20.97 10
10 24 Ayaka  KIKUCHI JPN JPN 7:13.69200m - 21.14 - (21.1)
600m - 53.41 - (32.2)
1000m - 1:26.47 - (33.0)
1400m - 1:59.82 - (33.3)
1800m - 2:33.38 - (33.5)
2200m - 3:07.22 - (33.8)
2600m - 3:41.50 - (34.2)
3000m - 4:16.14 - (34.6)
3400m - 4:51.20 - (35.0)
3800m - 5:26.77 - (35.5)
4200m - 6:02.23 - (35.4)
4600m - 6:37.89 - (35.6)
5000m - 7:13.69 - (35.7)
22.07 9
11 1 Anna  ROKITA AUT AUT 7:15.42200m - 21.06 - (21.0)
600m - 54.68 - (33.6)
1000m - 1:28.87 - (34.1)
1400m - 2:02.83 - (33.9)
1800m - 2:36.71 - (33.8)
2200m - 3:11.11 - (34.4)
2600m - 3:45.73 - (34.6)
3000m - 4:20.41 - (34.6)
3400m - 4:55.36 - (34.9)
3800m - 5:30.38 - (35.0)
4200m - 6:05.75 - (35.3)
4600m - 6:40.71 - (34.9)
5000m - 7:15.42 - (34.7)
23.80 8
12 29 Yvonne  NAUTA NED NED 7:16.50200m - 20.47 - (20.4)
600m - 52.65 - (32.1)
1000m - 1:25.09 - (32.4)
1400m - 1:57.98 - (32.8)
1800m - 2:31.17 - (33.1)
2200m - 3:04.62 - (33.4)
2600m - 3:38.42 - (33.7)
3000m - 4:12.47 - (34.0)
3400m - 4:46.92 - (34.4)
3800m - 5:21.77 - (34.8)
4200m - 5:57.59 - (35.8)
4600m - 6:35.48 - (37.8)
5000m - 7:16.50 - (41.0)
24.88 7
13 5 Kirsti  LAY CAN CAN 7:19.73200m - 20.88 - (20.8)
600m - 54.00 - (33.1)
1000m - 1:27.75 - (33.7)
1400m - 2:01.90 - (34.1)
1800m - 2:36.18 - (34.2)
2200m - 3:10.51 - (34.3)
2600m - 3:44.75 - (34.2)
3000m - 4:19.54 - (34.7)
3400m - 4:54.77 - (35.2)
3800m - 5:30.54 - (35.7)
4200m - 6:06.55 - (36.0)
4600m - 6:42.86 - (36.3)
5000m - 7:19.73 - (36.8)
28.11 6
14 13 Cathrine  GRAGE DEN DEN 7:21.49200m - 22.64 - (22.6)
600m - 53.08 - (30.4)
1000m - 1:31.17 - (38.0)
1400m - 2:06.03 - (34.8)
1800m - 2:40.48 - (34.4)
2200m - 3:14.69 - (34.2)
2600m - 3:48.78 - (34.0)
3000m - 4:23.35 - (34.5)
3400m - 4:58.36 - (35.0)
3800m - 5:33.34 - (34.9)
4200m - 6:08.74 - (35.4)
4600m - 6:45.08 - (36.3)
5000m - 7:21.49 - (36.4)
29.87 5
15 40 Olga  GRAF RUS RUS 7:21.67200m - 21.82 - (21.8)
600m - 54.75 - (32.9)
1000m - 1:28.03 - (33.2)
1400m - 2:01.69 - (33.6)
1800m - 2:35.75 - (34.0)
2200m - 3:10.14 - (34.3)
2600m - 3:44.67 - (34.5)
3000m - 4:19.53 - (34.8)
3400m - 4:54.74 - (35.2)
3800m - 5:30.32 - (35.5)
4200m - 6:06.49 - (36.1)
4600m - 6:43.88 - (37.3)
5000m - 7:21.67 - (37.7)
30.05 4
16 10 Chunyan  FU CHN CHN 7:31.78200m - 20.94 - (20.9)
600m - 54.01 - (33.0)
1000m - 1:28.51 - (34.5)
1400m - 2:03.29 - (34.7)
1800m - 2:38.68 - (35.3)
2200m - 3:14.35 - (35.6)
2600m - 3:50.16 - (35.8)
3000m - 4:26.73 - (36.5)
3400m - 5:04.04 - (37.3)
3800m - 5:41.41 - (37.3)
4200m - 6:18.33 - (36.9)
4600m - 6:55.09 - (36.7)
5000m - 7:31.78 - (36.6)
40.16 3
17 11 Jia  JI CHN CHN 7:32.39200m - 21.70 - (21.6)
600m - 56.38 - (34.6)
1000m - 1:31.73 - (35.3)
1400m - 2:06.85 - (35.1)
1800m - 2:42.45 - (35.5)
2200m - 3:17.91 - (35.4)
2600m - 3:53.56 - (35.6)
3000m - 4:29.34 - (35.7)
3400m - 5:05.40 - (36.0)
3800m - 5:41.58 - (36.1)
4200m - 6:18.23 - (36.6)
4600m - 6:55.45 - (37.2)
5000m - 7:32.39 - (36.9)
40.77 2
18 9 Feifei  DONG CHN CHN 7:33.25200m - 21.00 - (21.0)
600m - 54.86 - (33.8)
1000m - 1:29.38 - (34.5)
1400m - 2:04.42 - (35.0)
1800m - 2:39.90 - (35.4)
2200m - 3:15.95 - (36.0)
2600m - 3:52.81 - (36.8)
3000m - 4:30.07 - (37.2)
3400m - 5:07.51 - (37.4)
3800m - 5:44.72 - (37.2)
4200m - 6:20.72 - (36.0)
4600m - 6:56.91 - (36.1)
5000m - 7:33.25 - (36.3)
41.63 1
19 38 Katarzyna  WOZNIAK POL POL 7:37.80200m - 21.11 - (21.1)
600m - 54.02 - (32.9)
1000m - 1:28.18 - (34.1)
1400m - 2:03.22 - (35.0)
1800m - 2:38.25 - (35.0)
2200m - 3:13.89 - (35.6)
2600m - 3:50.03 - (36.1)
3000m - 4:26.98 - (36.9)
3400m - 5:04.69 - (37.7)
3800m - 5:42.88 - (38.1)
4200m - 6:21.36 - (38.4)
4600m - 7:00.45 - (39.0)
5000m - 7:37.80 - (37.3)
46.18 0
20 37 Karolina  DOMANSKA-KSYT POL POL 7:44.54200m - 21.17 - (21.1)
600m - 54.54 - (33.3)
1000m - 1:29.14 - (34.6)
1400m - 2:03.64 - (34.5)
1800m - 2:38.27 - (34.6)
2200m - 3:13.41 - (35.1)
2600m - 3:49.14 - (35.7)
3000m - 4:25.51 - (36.3)
3400m - 5:02.85 - (37.3)
3800m - 5:41.07 - (38.2)
4200m - 6:20.97 - (39.9)
4600m - 7:02.03 - (41.0)
5000m - 7:44.54 - (42.5)
52.92 0